GW2508 Weather Reports


time (UTC)temp
C
wind
direction
speed
KPH
gust
KPH
rain 1hr
cm
rain 24hr
cm
rain mn
cm
humidity
%
barometer
mb
20260906103833 19 70 6.4 9.7 0.00 0.00 0.00 87 1017.2
20260906103331 19 65 4.8 9.7 0.00 0.00 0.00 87 1017.1
20260906102828 19 31 4.8 9.7 0.00 0.00 0.00 87 1017.1
20260906102326 20 58 9.7 11.3 0.00 0.00 0.00 86 1017.3
20260906101822 20 69 6.4 11.3 0.00 0.00 0.00 86 1017.4
20260906101317 20 43 3.2 9.7 0.00 0.00 0.00 86 1017.3
20260906100813 20 72 4.8 9.7 0.00 0.00 0.00 86 1017.4
20260906100311 20 62 6.4 9.7 0.00 0.00 0.00 86 1017.1
20260906095807 20 62 6.4 12.9 0.00 0.00 0.00 86 1017.0
20260906095305 20 77 6.4 12.9 0.00 0.00 0.00 85 1016.9
20260906094801 20 39 8.0 11.3 0.00 0.00 0.00 86 1017.0
20260906094256 20 82 4.8 6.4 0.00 0.00 0.00 86 1017.0
20260906093753 20 22 6.4 11.3 0.00 0.00 0.00 86 1017.1
20260906093248 21 28 9.7 12.9 0.00 0.00 0.00 87 1017.2
20260906092744 21 59 9.7 12.9 0.00 0.00 0.00 88 1017.1
20260906092243 21 99 3.2 14.5 0.00 0.00 0.00 88 1016.9
20260906091739 21 46 6.4 16.1 0.00 0.00 0.00 90 1016.9
20260906091235 21 36 9.7 16.1 0.00 0.00 0.00 90 1016.8
20260906090731 21 55 6.4 9.7 0.00 0.00 0.00 93 1016.9
20260906090231 21 59 3.2 14.5 0.00 0.00 0.00 92 1017.0
20260906085730 21 89 6.4 22.5 0.00 0.00 0.00 92 1016.8
20260906085229 21 67 6.4 9.7 0.00 0.00 0.00 93 1016.9
20260906084724 21 60 6.4 11.3 0.00 0.00 0.00 94 1016.7
20260906084219 21 82 3.2 9.7 0.00 0.00 0.00 94 1016.5
20260906083714 21 100 1.6 11.3 0.00 0.00 0.00 94 1016.5
20260906083209 21 64 4.8 9.7 0.00 0.00 0.00 94 1016.5
20260906082704 21 67 8.0 14.5 0.00 0.00 0.00 94 1016.5
20260906082159 21 94 3.2 9.7 0.00 0.00 0.00 95 1016.5
20260906081655 21 13 8.0 12.9 0.00 0.00 0.00 95 1016.5
20260906081149 21 8 8.0 9.7 0.00 0.00 0.00 95 1016.5
20260906080646 21 39 8.0 9.7 0.00 0.00 0.00 95 1016.5
20260906080142 21 58 9.7 12.9 0.00 0.00 0.00 95 1016.6
20260906075641 21 55 4.8 6.4 0.00 0.00 0.00 95 1016.5
20260906075136 21 125 3.2 4.8 0.00 0.00 0.00 96 1016.4
20260906074632 21 341 3.2 4.8 0.00 0.00 0.00 96 1016.3
20260906074130 21 24 3.2 9.7 0.00 0.00 0.00 96 1016.2
20260906073625 21 91 3.2 4.8 0.00 0.00 0.00 96 1016.3
20260906073121 21 347 3.2 4.8 0.00 0.00 0.00 96 1016.5
20260906072616 21 344 4.8 4.8 0.00 0.00 0.00 96 1016.4
20260906072113 21 351 3.2 4.8 0.00 0.00 0.00 96 1016.5
20260906071609 21 329 1.6 4.8 0.00 0.00 0.00 96 1016.4
20260906071109 21 250 1.6 4.8 0.00 0.00 0.00 96 1016.5
20260906070606 21 343 3.2 4.8 0.00 0.00 0.00 96 1016.4
20260906070100 21 232 1.6 4.8 0.00 0.00 0.00 96 1016.4
20260906065600 21 94 1.6 4.8 0.00 0.00 0.00 96 1016.5
20260906065056 21 333 3.2 4.8 0.00 0.00 0.00 96 1016.5
20260906064551 21 107 0.0 3.2 0.00 0.00 0.00 96 1016.6
20260906064046 21 328 3.2 3.2 0.00 0.00 0.00 96 1016.6
20260906063541 21 259 1.6 4.8 0.00 0.00 0.00 95 1016.7
20260906063037 21 347 4.8 4.8 0.00 0.00 0.00 95 1016.3
20260906062532 21 126 1.6 3.2 0.00 0.00 0.00 95 1016.5
20260906062026 21 110 1.6 3.2 0.00 0.00 0.00 95 1016.5
20260906061523 21 20 4.8 4.8 0.00 0.00 0.00 95 1016.6
20260906061022 21 339 3.2 4.8 0.00 0.00 0.00 96 1016.4
20260906060519 21 355 1.6 3.2 0.00 0.00 0.00 95 1016.5
20260906060016 21 332 3.2 4.8 0.00 0.00 0.00 95 1016.5
20260906055512 21 358 3.2 4.8 0.00 0.00 0.00 95 1016.4
20260906055007 21 213 0.0 1.6 0.00 0.00 0.00 95 1016.1
20260906054507 21 259 3.2 6.4 0.00 0.00 0.00 95 1016.3
20260906054002 21 283 3.2 4.8 0.00 0.00 0.00 95 1016.3
20260906053458 21 279 3.2 3.2 0.00 0.00 0.00 94 1016.3
20260906052954 21 196 0.0 3.2 0.00 0.00 0.00 94 1016.3
20260906052450 22 2 3.2 4.8 0.00 0.00 0.00 94 1016.4
20260906051946 21 80 6.4 6.4 0.00 0.00 0.00 94 1016.3
20260906051441 21 348 6.4 6.4 0.00 0.00 0.00 94 1016.3
20260906050937 21 249 1.6 3.2 0.00 0.00 0.00 94 1016.2
20260906050437 22 3 4.8 9.7 0.00 0.00 0.00 94 1016.3
20260906045936 22 249 1.6 3.2 0.00 0.00 0.00 94 1016.1
20260906045435 22 10 3.2 4.8 0.00 0.00 0.00 93 1016.2
20260906044932 22 359 6.4 6.4 0.00 0.00 0.00 93 1016.2
20260906044432 22 45 1.6 3.2 0.00 0.00 0.00 93 1016.0
20260906043927 22 18 4.8 6.4 0.00 0.00 0.00 93 1016.1
20260906043423 22 354 6.4 9.7 0.00 0.00 0.00 93 1016.1
20260906042918 22 5 3.2 4.8 0.00 0.00 0.00 93 1015.9
20260906042417 22 249 1.6 4.8 0.00 0.00 0.00 93 1016.0
20260906041912 22 323 3.2 9.7 0.00 0.00 0.00 93 1015.9
20260906041409 22 353 4.8 9.7 0.00 0.00 0.00 92 1016.1
20260906040908 22 341 4.8 11.3 0.00 0.00 0.00 92 1015.8
20260906040403 22 139 1.6 4.8 0.00 0.00 0.00 92 1015.9
20260906035859 22 9 3.2 9.7 0.00 0.00 0.00 92 1016.0
20260906035355 22 47 3.2 9.7 0.00 0.00 0.00 92 1016.0
20260906034850 22 51 1.6 6.4 0.00 0.00 0.00 92 1016.1
20260906034349 22 334 4.8 9.7 0.00 0.00 0.00 91 1016.0
20260906033846 22 204 3.2 11.3 0.00 0.00 0.00 91 1015.8
20260906033344 22 334 8.0 11.3 0.00 0.00 0.00 91 1015.9
20260906032841 22 8 3.2 6.4 0.00 0.00 0.00 91 1015.7
20260906032337 22 333 6.4 11.3 0.00 0.00 0.00 90 1016.0
20260906031832 23 49 8.0 11.3 0.00 0.00 0.00 90 1016.0
20260906031327 23 66 3.2 6.4 0.00 0.00 0.00 89 1015.8
20260906030827 23 11 4.8 11.3 0.00 0.00 0.00 90 1015.9
20260906030323 23 283 3.2 9.7 0.00 0.00 0.00 89 1015.9
20260906025823 23 358 3.2 9.7 0.00 0.00 0.00 89 1015.9
20260906025317 23 63 3.2 11.3 0.00 0.00 0.00 89 1015.9
20260906024816 23 311 8.0 12.9 0.00 0.00 0.00 89 1015.9
20260906024315 23 336 3.2 9.7 0.00 0.00 0.00 89 1015.9
20260906023811 23 35 4.8 11.3 0.00 0.00 0.00 88 1015.7
20260906023306 23 9 6.4 6.4 0.00 0.00 0.00 88 1015.6
20260906022801 24 30 6.4 9.7 0.00 0.00 0.00 87 1015.8
20260906022257 24 321 6.4 9.7 0.00 0.00 0.00 87 1015.6
20260906021753 25 125 1.6 6.4 0.00 0.00 0.00 86 1015.7
20260906021251 25 358 9.7 12.9 0.00 0.00 0.00 85 1015.4
20260906020746 25 359 6.4 9.7 0.00 0.00 0.00 86 1015.2
20260906020241 25 345 12.9 14.5 0.00 0.00 0.00 86 1015.1
20260906015741 25 306 4.8 11.3 0.00 0.00 0.00 86 1015.2
20260906015240 25 2 6.4 12.9 0.00 0.00 0.00 85 1015.1
20260906014739 25 355 6.4 9.7 0.00 0.00 0.00 84 1015.0
20260906014235 25 14 8.0 11.3 0.00 0.00 0.00 83 1015.0
20260906013731 25 359 9.7 16.1 0.00 0.00 0.00 83 1015.0
20260906013231 25 343 3.2 9.7 0.00 0.00 0.00 84 1015.0
20260906012726 26 220 3.2 4.8 0.00 0.00 0.00 83 1015.1
20260906012221 26 354 3.2 12.9 0.00 0.00 0.00 83 1015.1
20260906011717 26 35 4.8 12.9 0.00 0.00 0.00 83 1014.8
20260906011211 26 43 8.0 11.3 0.00 0.00 0.00 82 1014.7
20260906010707 26 7 3.2 9.7 0.00 0.00 0.00 82 1014.5
20260906010204 26 0 3.2 6.4 0.00 0.00 0.00 83 1014.4
20260906005703 26 341 1.6 9.7 0.00 0.00 0.00 82 1014.5
20260906005202 26 350 4.8 6.4 0.00 0.00 0.00 82 1014.5
20260906004701 26 4 6.4 6.4 0.00 0.00 0.00 81 1014.3
20260906004156 27 0 9.7 9.7 0.00 0.00 0.00 81 1014.2
20260906003652 27 346 11.3 12.9 0.00 0.00 0.00 80 1014.3
20260906003148 27 11 6.4 16.1 0.00 0.00 0.00 81 1014.4
20260906002647 27 358 6.4 12.9 0.00 0.00 0.00 82 1014.3
20260906002142 27 307 6.4 12.9 0.00 0.00 0.00 81 1014.0
20260906001637 27 14 6.4 9.7 0.00 0.00 0.00 80 1014.2
20260906001137 28 25 8.0 12.9 0.00 0.00 0.00 81 1014.2
20260906000633 28 346 8.0 11.3 0.00 0.00 0.00 81 1014.1
20260906000128 28 71 4.8 11.3 0.00 0.00 0.00 79 1014.0
20260905235627 29 59 11.3 14.5 0.00 0.00 0.00 77 1014.0
20260905235123 29 345 4.8 17.7 0.00 0.00 0.00 78 1014.1
20260905234618 29 23 3.2 12.9 0.00 0.00 0.00 79 1014.0
20260905234114 29 52 3.2 6.4 0.00 0.00 0.00 80 1014.0
20260905233613 30 331 8.0 11.3 0.00 0.00 0.00 79 1014.0
20260905233108 30 8 9.7 11.3 0.00 0.00 0.00 77 1013.7
20260905232603 30 355 8.0 16.1 0.00 0.00 0.00 76 1013.7
20260905232059 30 307 6.4 11.3 0.00 0.00 0.00 75 1013.7
20260905231554 30 8 9.7 12.9 0.00 0.00 0.00 74 1013.7
20260905231050 31 341 4.8 11.3 0.00 0.00 0.00 74 1013.6
20260905230549 31 349 9.7 14.5 0.00 0.00 0.00 72 1013.6
20260905230048 31 351 6.4 12.9 0.00 0.00 0.00 74 1013.4
20260905225548 31 0 8.0 9.7 0.00 0.00 0.00 73 1013.4
20260905225043 31 344 8.0 11.3 0.00 0.00 0.00 73 1013.4
20260905224538 31 336 4.8 9.7 0.00 0.00 0.00 74 1013.2
20260905224037 31 343 4.8 9.7 0.00 0.00 0.00 73 1013.2
20260905223535 31 320 8.0 12.9 0.00 0.00 0.00 71 1013.4
20260905223031 32 334 6.4 9.7 0.00 0.00 0.00 71 1013.0
20260905222530 32 324 6.4 6.4 0.00 0.00 0.00 70 1013.4
20260905222026 32 330 4.8 6.4 0.00 0.00 0.00 70 1013.2
20260905221522 32 315 6.4 9.7 0.00 0.00 0.00 69 1013.6
20260905221018 32 327 6.4 11.3 0.00 0.00 0.00 69 1013.3
20260905220514 33 344 3.2 4.8 0.00 0.00 0.00 68 1013.0
20260905220009 32 284 4.8 4.8 0.00 0.00 0.00 69 1013.2
20260905215504 33 294 6.4 11.3 0.00 0.00 0.00 67 1013.0
20260905215000 32 255 3.2 11.3 0.00 0.00 0.00 69 1013.2
20260905214455 32 274 3.2 6.4 0.00 0.00 0.00 66 1013.1
20260905213955 32 285 6.4 9.7 0.00 0.00 0.00 65 1013.3
20260905213451 33 255 6.4 6.4 0.00 0.00 0.00 65 1013.3
20260905212946 33 243 3.2 6.4 0.00 0.00 0.00 62 1013.6
20260905212441 33 220 0.0 3.2 0.00 0.00 0.00 62 1013.3
20260905211940 33 219 0.0 4.8 0.00 0.00 0.00 63 1013.3
20260905211436 33 301 3.2 6.4 0.00 0.00 0.00 65 1013.3
20260905210932 33 274 1.6 4.8 0.00 0.00 0.00 67 1013.3
20260905210432 32 217 1.6 3.2 0.00 0.00 0.00 68 1013.6
20260905205931 32 278 3.2 6.4 0.00 0.00 0.00 65 1013.4
20260905205427 32 275 4.8 6.4 0.00 0.00 0.00 65 1013.7
20260905204925 32 274 3.2 4.8 0.00 0.00 0.00 65 1013.7
20260905204421 32 240 3.2 4.8 0.00 0.00 0.00 66 1013.6
20260905203921 32 227 3.2 4.8 0.00 0.00 0.00 63 1014.0
20260905203416 31 234 3.2 6.4 0.00 0.00 0.00 61 1013.9
20260905202912 31 242 1.6 9.7 0.00 0.00 0.00 62 1013.9
20260905202407 31 247 4.8 11.3 0.00 0.00 0.00 63 1013.9
20260905201903 31 282 8.0 9.7 0.00 0.00 0.00 57 1014.0
20260905201358 30 231 1.6 3.2 0.00 0.00 0.00 57 1014.0
20260905200857 30 257 4.8 4.8 0.00 0.00 0.00 61 1014.1
20260905200353 28 262 4.8 4.8 0.00 0.00 0.00 66 1014.1
20260905195851 28 239 3.2 6.4 0.00 0.00 0.00 65 1014.3
20260905195347 28 297 8.0 14.5 0.00 0.00 0.00 62 1014.5
20260905194842 29 280 6.4 17.7 0.00 0.00 0.00 66 1014.4
20260905194342 31 279 9.7 17.7 0.00 0.00 0.00 67 1014.7
20260905193841 31 235 1.6 3.2 0.00 0.00 0.00 73 1014.2
20260905193336 31 229 1.6 4.8 0.00 0.00 0.00 70 1014.4
20260905192832 32 321 3.2 4.8 0.00 0.00 0.00 67 1014.5
20260905192328 32 345 0.0 1.6 0.00 0.00 0.00 70 1014.1
20260905191827 33 336 6.4 6.4 0.00 0.00 0.00 68 1014.4
20260905191326 33 211 1.6 4.8 0.00 0.00 0.00 63 1014.5
20260905190825 33 242 1.6 3.2 0.00 0.00 0.00 66 1014.4
20260905190324 33 248 3.2 3.2 0.00 0.00 0.00 63 1014.6
20260905185823 33 208 3.2 3.2 0.00 0.00 0.00 63 1014.2
20260905185319 33 215 4.8 9.7 0.00 0.00 0.00 64 1014.4
20260905184818 33 186 0.0 1.6 0.00 0.00 0.00 65 1014.5
20260905184317 32 214 0.0 3.2 0.00 0.00 0.00 68 1014.9
20260905183816 32 221 1.6 9.7 0.00 0.00 0.00 64 1014.9
20260905183312 32 208 3.2 3.2 0.00 0.00 0.00 65 1014.8
20260905182812 33 216 0.0 3.2 0.00 0.00 0.00 65 1015.0
20260905182311 32 190 1.6 3.2 0.00 0.00 0.00 65 1015.1
20260905181807 32 240 1.6 4.8 0.00 0.00 0.00 65 1015.0
20260905181301 31 205 1.6 4.8 0.00 0.00 0.00 68 1015.2
20260905180800 32 263 3.2 4.8 0.00 0.00 0.00 67 1015.4
20260905180256 31 194 3.2 4.8 0.00 0.00 0.00 71 1015.3
20260905175755 31 245 6.4 6.4 0.00 0.00 0.00 72 1015.3
20260905175250 31 204 1.6 9.7 0.00 0.00 0.00 67 1015.5
20260905174745 31 201 1.6 6.4 0.00 0.00 0.00 71 1015.6
20260905174241 31 235 4.8 6.4 0.00 0.00 0.00 70 1015.6
20260905173737 31 195 3.2 3.2 0.00 0.00 0.00 75 1015.4
20260905173232 31 184 1.6 6.4 0.00 0.00 0.00 69 1015.5
20260905172727 31 191 1.6 3.2 0.00 0.00 0.00 71 1015.4
20260905172226 31 144 3.2 4.8 0.00 0.00 0.00 69 1015.7
20260905171722 31 191 1.6 4.8 0.00 0.00 0.00 71 1015.7
20260905171218 30 145 6.4 6.4 0.00 0.00 0.00 70 1015.7
20260905170715 30 169 4.8 6.4 0.00 0.00 0.00 70 1015.9
20260905170215 30 171 4.8 9.7 0.00 0.00 0.00 71 1015.9
20260905165715 30 201 1.6 6.4 0.00 0.00 0.00 72 1015.8
20260905165210 30 227 4.8 11.3 0.00 0.00 0.00 71 1016.0
20260905164705 30 169 3.2 4.8 0.00 0.00 0.00 71 1016.1
20260905164204 29 189 3.2 11.3 0.00 0.00 0.00 72 1015.9
20260905163700 30 225 3.2 4.8 0.00 0.00 0.00 71 1015.9
20260905163157 29 188 3.2 6.4 0.00 0.00 0.00 75 1015.9
20260905162653 28 189 6.4 11.3 0.00 0.00 0.00 75 1015.8
20260905162152 28 143 3.2 9.7 0.00 0.00 0.00 72 1015.8
20260905161648 29 141 8.0 9.7 0.00 0.00 0.00 70 1015.9
20260905161145 29 196 6.4 12.9 0.00 0.00 0.00 69 1016.0
20260905160644 29 223 4.8 11.3 0.00 0.00 0.00 72 1015.8
20260905160143 30 154 8.0 9.7 0.00 0.00 0.00 70 1015.7
20260905155638 29 196 9.7 11.3 0.00 0.00 0.00 70 1015.8
20260905155137 29 170 4.8 11.3 0.00 0.00 0.00 70 1016.0
20260905154631 29 143 8.0 11.3 0.00 0.00 0.00 68 1016.3
20260905154127 28 132 3.2 12.9 0.00 0.00 0.00 69 1016.3
20260905153623 28 178 4.8 12.9 0.00 0.00 0.00 70 1016.2
20260905153118 28 152 6.4 12.9 0.00 0.00 0.00 71 1016.1
20260905152613 28 149 6.4 16.1 0.00 0.00 0.00 71 1016.1
20260905152108 28 196 3.2 6.4 0.00 0.00 0.00 73 1016.0
20260905151602 28 99 11.3 16.1 0.00 0.00 0.00 75 1016.0
20260905151058 28 136 6.4 12.9 0.00 0.00 0.00 75 1015.9
20260905150553 28 206 8.0 12.9 0.00 0.00 0.00 74 1015.9
20260905150052 28 192 3.2 11.3 0.00 0.00 0.00 74 1016.4
20260905145550 28 202 8.0 12.9 0.00 0.00 0.00 75 1016.3
20260905145049 28 183 4.8 11.3 0.00 0.00 0.00 76 1016.5
20260905144544 27 145 8.0 12.9 0.00 0.00 0.00 76 1016.4
20260905144044 28 155 3.2 11.3 0.00 0.00 0.00 77 1016.2
20260905143544 28 145 8.0 9.7 0.00 0.00 0.00 76 1015.9
20260905143039 27 192 8.0 16.1 0.00 0.00 0.00 78 1016.1
20260905142538 27 114 3.2 6.4 0.00 0.00 0.00 78 1016.1
20260905142033 27 122 6.4 12.9 0.00 0.00 0.00 80 1016.0
20260905141532 27 160 8.0 12.9 0.00 0.00 0.00 79 1016.1
20260905141029 27 185 6.4 9.7 0.00 0.00 0.00 80 1016.2
20260905140529 27 170 3.2 16.1 0.00 0.00 0.00 82 1016.2
20260905140028 26 117 8.0 11.3 0.00 0.00 0.00 82 1016.1
20260905135524 26 192 9.7 16.1 0.00 0.00 0.00 83 1016.2
20260905135020 27 154 4.8 12.9 0.00 0.00 0.00 84 1016.0
20260905134519 26 185 4.8 12.9 0.00 0.00 0.00 85 1016.1
20260905134018 25 141 4.8 9.7 0.00 0.00 0.00 89 1016.2
20260905133514 25 127 8.0 11.3 0.00 0.00 0.00 92 1016.2
20260905133013 24 109 8.0 14.5 0.00 0.00 0.00 93 1016.0
20260905132508 24 103 8.0 12.9 0.00 0.00 0.00 95 1016.1
20260905132008 24 113 0.0 0.0 0.00 0.00 0.00 95 1016.1
20260905131504 24 161 0.0 0.0 0.00 0.00 0.00 94 1015.7
20260905130959 24 158 0.0 0.0 0.00 0.00 0.00 93 1015.8
20260905130458 23 163 0.0 0.0 0.00 0.00 0.00 97 1015.8
20260905125958 23 193 0.0 0.0 0.00 0.00 0.00 97 1015.7
20260905125453 23 162 0.0 0.0 0.00 0.00 0.00 97 1015.6
20260905124948 23 166 0.0 0.0 0.00 0.00 0.00 97 1015.7
20260905124445 23 193 0.0 0.0 0.00 0.00 0.00 97 1015.5
20260905123940 23 190 0.0 0.0 0.00 0.00 0.00 97 1015.5
20260905123437 23 191 0.0 0.0 0.00 0.00 0.00 97 1015.8
20260905122937 23 187 0.0 0.0 0.00 0.00 0.00 98 1015.6
20260905122436 23 170 0.0 0.0 0.00 0.00 0.00 98 1015.5
20260905121932 23 165 0.0 0.0 0.00 0.00 0.00 98 1015.3
20260905121427 23 191 0.0 0.0 0.00 0.00 0.00 98 1015.6
20260905120926 23 194 0.0 0.0 0.00 0.00 0.00 98 1015.4
20260905120421 23 193 0.0 0.0 0.00 0.00 0.00 98 1015.4
20260905115916 23 211 0.0 0.0 0.00 0.00 0.00 98 1015.5
20260905115416 22 206 0.0 0.0 0.00 0.00 0.00 98 1015.6
20260905114911 22 205 0.0 0.0 0.00 0.00 0.00 98 1015.5
20260905114410 22 204 0.0 0.0 0.00 0.00 0.00 98 1015.4
20260905113909 22 190 0.0 0.0 0.00 0.00 0.00 98 1015.1
20260905113405 22 179 0.0 0.0 0.00 0.00 0.00 98 1015.3
20260905112900 22 190 0.0 0.0 0.00 0.00 0.00 98 1015.3
20260905112355 22 207 0.0 0.0 0.00 0.00 0.00 98 1015.4
20260905111845 22 214 0.0 0.0 0.00 0.00 0.00 98 1015.3
20260905111345 22 208 0.0 0.0 0.00 0.00 0.00 98 1015.3
20260905110844 22 203 0.0 0.0 0.00 0.00 0.00 98 1015.2
20260905110344 22 212 0.0 0.0 0.00 0.00 0.00 98 1015.2
20260905105840 22 20 0.0 0.0 0.00 0.00 0.00 98 1015.2
20260905105339 22 48 0.0 0.0 0.00 0.00 0.00 98 1015.2
20260905104838 22 180 0.0 0.0 0.00 0.00 0.00 98 1015.3
20260905104335 22 194 0.0 0.0 0.00 0.00 0.00 98 1015.5